Wetterdaten: Sonntag, 28.09.2014
Datum Zeit Temperatur Luftfeuchte Luftdruck Regen Wind Richtung Richtung Taupunkt Windchill Windben
28.09.2014 00:00 11,4 C 89 % 1028,9 hPa 0,0 l/m 0,0 km/h (0 Bft) S-SO 157 9,7 C 22,8 C 0,0 km/h (0 Bft)
28.09.2014 00:10 11,7 C 91 % 1028,8 hPa 0,0 l/m 0,0 km/h (0 Bft) S-SO 157 10,3 C 22,8 C 0,0 km/h (0 Bft)
28.09.2014 00:20 11,7 C 91 % 1028,8 hPa 0,0 l/m 0,0 km/h (0 Bft) S-SO 157 10,3 C 22,8 C 0,0 km/h (0 Bft)
28.09.2014 00:30 11,7 C 91 % 1028,8 hPa 0,0 l/m 0,0 km/h (0 Bft) S-SO 157 10,3 C 22,8 C 0,0 km/h (0 Bft)
28.09.2014 00:40 11,7 C 91 % 1028,8 hPa 0,0 l/m 0,0 km/h (0 Bft) S-SO 157 10,3 C 22,8 C 0,0 km/h (0 Bft)
28.09.2014 00:50 11,8 C 91 % 1028,6 hPa 0,0 l/m 0,0 km/h (0 Bft) S-SO 157 10,4 C 22,8 C 0,0 km/h (0 Bft)
28.09.2014 01:00 11,7 C 91 % 1028,6 hPa 0,0 l/m 0,0 km/h (0 Bft) S-SO 157 10,3 C 22,8 C 0,0 km/h (0 Bft)
28.09.2014 01:10 11,4 C 91 % 1028,6 hPa 0,0 l/m 0,0 km/h (0 Bft) S-SO 157 10,0 C 22,8 C 0,0 km/h (0 Bft)
28.09.2014 01:20 11,2 C 91 % 1028,6 hPa 0,0 l/m 0,0 km/h (0 Bft) S-SO 157 9,8 C 22,8 C 0,0 km/h (0 Bft)
28.09.2014 01:30 11,2 C 91 % 1028,4 hPa 0,0 l/m 0,0 km/h (0 Bft) S-SO 157 9,8 C 22,8 C 0,0 km/h (0 Bft)
28.09.2014 01:40 11,4 C 91 % 1028,4 hPa 0,0 l/m 0,0 km/h (0 Bft) S-SO 157 10,0 C 22,8 C 0,0 km/h (0 Bft)
28.09.2014 01:50 11,3 C 91 % 1028,5 hPa 0,0 l/m 0,0 km/h (0 Bft) S-SO 157 9,9 C 22,8 C 0,0 km/h (0 Bft)
28.09.2014 02:00 11,3 C 91 % 1028,5 hPa 0,0 l/m 0,0 km/h (0 Bft) S-SO 157 9,9 C 22,8 C 0,0 km/h (0 Bft)
28.09.2014 02:10 11,2 C 91 % 1028,6 hPa 0,0 l/m 0,0 km/h (0 Bft) S-SO 157 9,8 C 22,8 C 0,0 km/h (0 Bft)
28.09.2014 02:20 11,1 C 91 % 1028,6 hPa 0,0 l/m 0,0 km/h (0 Bft) S-SO 157 9,7 C 22,8 C 0,0 km/h (0 Bft)
28.09.2014 02:30 10,8 C 91 % 1028,6 hPa 0,0 l/m 0,0 km/h (0 Bft) S-SO 157 9,4 C 22,8 C 0,0 km/h (0 Bft)
28.09.2014 02:38 10,1 C 90 % 1028,6 hPa 0,0 l/m 0,0 km/h (0 Bft) S-SO 157 8,5 C 22,8 C 0,0 km/h (0 Bft)
28.09.2014 02:40 10,1 C 90 % 1028,6 hPa 0,0 l/m 0,0 km/h (0 Bft) S-SO 157 8,5 C 22,8 C 0,0 km/h (0 Bft)
28.09.2014 02:50 10,3 C 91 % 1028,4 hPa 0,0 l/m 0,0 km/h (0 Bft) S-SO 157 8,9 C 22,8 C 0,0 km/h (0 Bft)
28.09.2014 03:00 10,4 C 91 % 1028,4 hPa 0,0 l/m 0,0 km/h (0 Bft) S-SO 157 9,0 C 22,8 C 0,0 km/h (0 Bft)
28.09.2014 03:10 10,5 C 91 % 1028,2 hPa 0,0 l/m 0,0 km/h (0 Bft) S-SO 157 9,1 C 22,8 C 0,0 km/h (0 Bft)
28.09.2014 03:20 10,5 C 91 % 1028,2 hPa 0,0 l/m 0,0 km/h (0 Bft) S-SO 157 9,1 C 22,8 C 0,0 km/h (0 Bft)
28.09.2014 03:30 10,5 C 91 % 1028,0 hPa 0,0 l/m 0,0 km/h (0 Bft) S-SO 157 9,1 C 22,8 C 0,0 km/h (0 Bft)
28.09.2014 03:40 10,5 C 91 % 1028,0 hPa 0,0 l/m 0,0 km/h (0 Bft) S-SO 157 9,1 C 22,8 C 0,0 km/h (0 Bft)
28.09.2014 03:50 10,6 C 92 % 1028,1 hPa 0,0 l/m 0,0 km/h (0 Bft) S-SO 157 9,4 C 22,8 C 0,0 km/h (0 Bft)
28.09.2014 04:00 10,5 C 92 % 1028,1 hPa 0,0 l/m 0,0 km/h (0 Bft) S-SO 157 9,3 C 22,8 C 0,0 km/h (0 Bft)
28.09.2014 04:10 10,3 C 92 % 1027,9 hPa 0,0 l/m 0,0 km/h (0 Bft) S-SO 157 9,1 C 22,8 C 0,0 km/h (0 Bft)
28.09.2014 04:20 9,9 C 92 % 1027,9 hPa 0,0 l/m 0,0 km/h (0 Bft) S-SO 157 8,7 C 22,8 C 0,0 km/h (0 Bft)
28.09.2014 04:30 9,6 C 91 % 1027,8 hPa 0,0 l/m 0,0 km/h (0 Bft) S-SO 157 8,2 C 22,8 C 0,0 km/h (0 Bft)
28.09.2014 04:40 9,4 C 91 % 1027,8 hPa 0,0 l/m 0,0 km/h (0 Bft) S-SO 157 8,0 C 22,8 C 0,0 km/h (0 Bft)
28.09.2014 04:50 8,8 C 91 % 1027,8 hPa 0,0 l/m 0,0 km/h (0 Bft) S-SO 157 7,4 C 22,8 C 0,0 km/h (0 Bft)
28.09.2014 05:00 8,3 C 91 % 1027,8 hPa 0,0 l/m 0,0 km/h (0 Bft) S-SO 157 6,9 C 22,8 C 0,0 km/h (0 Bft)
28.09.2014 05:10 8,0 C 91 % 1027,7 hPa 0,0 l/m 0,0 km/h (0 Bft) S-SO 157 6,6 C 22,8 C 0,0 km/h (0 Bft)
28.09.2014 05:20 7,7 C 91 % 1027,7 hPa 0,0 l/m 0,0 km/h (0 Bft) S-SO 157 6,3 C 22,8 C 0,0 km/h (0 Bft)
28.09.2014 05:30 7,3 C 91 % 1027,8 hPa 0,0 l/m 0,0 km/h (0 Bft) S-SO 157 5,9 C 22,8 C 0,0 km/h (0 Bft)
28.09.2014 05:38 7,4 C 92 % 1027,8 hPa 0,0 l/m 0,0 km/h (0 Bft) S-SO 157 6,2 C 22,8 C 0,0 km/h (0 Bft)
28.09.2014 05:40 7,4 C 92 % 1027,8 hPa 0,0 l/m 0,0 km/h (0 Bft) S-SO 157 6,2 C 22,8 C 0,0 km/h (0 Bft)
28.09.2014 05:50 8,0 C 92 % 1027,6 hPa 0,0 l/m 0,0 km/h (0 Bft) S-SO 157 6,8 C 22,8 C 0,0 km/h (0 Bft)
28.09.2014 06:00 8,0 C 92 % 1027,6 hPa 0,0 l/m 0,0 km/h (0 Bft) S-SO 157 6,8 C 22,8 C 0,0 km/h (0 Bft)
28.09.2014 06:10 8,0 C 92 % 1027,4 hPa 0,0 l/m 0,0 km/h (0 Bft) S-SO 157 6,8 C 22,8 C 0,0 km/h (0 Bft)
28.09.2014 06:20 8,0 C 92 % 1027,4 hPa 0,0 l/m 0,0 km/h (0 Bft) S-SO 157 6,8 C 22,8 C 0,0 km/h (0 Bft)
28.09.2014 06:30 8,2 C 92 % 1027,5 hPa 0,0 l/m 0,0 km/h (0 Bft) S-SO 157 7,0 C 22,8 C 0,0 km/h (0 Bft)
28.09.2014 06:40 8,3 C 93 % 1027,5 hPa 0,0 l/m 0,0 km/h (0 Bft) S-SO 157 7,2 C 22,8 C 0,0 km/h (0 Bft)
28.09.2014 06:50 8,2 C 93 % 1027,4 hPa 0,0 l/m 0,0 km/h (0 Bft) S-SO 157 7,1 C 22,8 C 0,0 km/h (0 Bft)
28.09.2014 07:00 8,2 C 93 % 1027,4 hPa 0,0 l/m 0,0 km/h (0 Bft) S-SO 157 7,1 C 22,8 C 0,0 km/h (0 Bft)
28.09.2014 07:10 8,1 C 93 % 1027,4 hPa 0,0 l/m 0,0 km/h (0 Bft) S-SO 157 7,0 C 22,8 C 0,0 km/h (0 Bft)
28.09.2014 07:20 8,0 C 93 % 1027,4 hPa 0,0 l/m 0,0 km/h (0 Bft) S-SO 157 6,9 C 22,8 C 0,0 km/h (0 Bft)
28.09.2014 07:30 7,5 C 93 % 1027,5 hPa 0,0 l/m 0,0 km/h (0 Bft) S-SO 157 6,4 C 22,8 C 0,0 km/h (0 Bft)
28.09.2014 07:40 7,1 C 93 % 1027,5 hPa 0,0 l/m 0,0 km/h (0 Bft) S-SO 157 6,0 C 22,8 C 0,0 km/h (0 Bft)
28.09.2014 07:50 6,8 C 93 % 1027,5 hPa 0,0 l/m 0,0 km/h (0 Bft) S-SO 157 5,7 C 22,8 C 0,0 km/h (0 Bft)
28.09.2014 08:00 6,7 C 93 % 1027,5 hPa 0,0 l/m 0,0 km/h (0 Bft) S-SO 157 5,6 C 22,8 C 0,0 km/h (0 Bft)
28.09.2014 08:10 6,6 C 93 % 1027,5 hPa 0,0 l/m 0,0 km/h (0 Bft) S-SO 157 5,6 C 22,8 C 0,0 km/h (0 Bft)
28.09.2014 08:20 6,5 C 93 % 1027,5 hPa 0,0 l/m 0,0 km/h (0 Bft) S-SO 157 5,5 C 22,8 C 0,0 km/h (0 Bft)
28.09.2014 08:28 6,7 C 93 % 1027,4 hPa 0,0 l/m 0,0 km/h (0 Bft) S-SO 157 5,6 C 22,8 C 0,0 km/h (0 Bft)
28.09.2014 08:30 7,2 C 93 % 1027,4 hPa 0,0 l/m 0,0 km/h (0 Bft) S-SO 157 6,1 C 22,8 C 0,0 km/h (0 Bft)
28.09.2014 08:40 7,2 C 93 % 1027,4 hPa 0,0 l/m 0,0 km/h (0 Bft) S-SO 157 6,1 C 22,8 C 0,0 km/h (0 Bft)
28.09.2014 08:50 7,8 C 93 % 1027,6 hPa 0,0 l/m 0,0 km/h (0 Bft) S-SO 157 6,7 C 22,8 C 0,0 km/h (0 Bft)
28.09.2014 09:00 8,4 C 93 % 1027,6 hPa 0,0 l/m 0,0 km/h (0 Bft) S-SO 157 7,3 C 22,8 C 0,0 km/h (0 Bft)
28.09.2014 09:10 9,0 C 93 % 1027,8 hPa 0,0 l/m 0,0 km/h (0 Bft) S-SO 157 7,9 C 22,8 C 0,0 km/h (0 Bft)
28.09.2014 09:20 9,6 C 93 % 1027,8 hPa 0,0 l/m 0,0 km/h (0 Bft) S-SO 157 8,5 C 22,8 C 0,0 km/h (0 Bft)
28.09.2014 09:30 10,2 C 94 % 1027,9 hPa 0,0 l/m 0,0 km/h (0 Bft) S-SO 157 9,3 C 22,8 C 0,0 km/h (0 Bft)
28.09.2014 09:40 12,3 C 93 % 1027,9 hPa 0,0 l/m 0,0 km/h (0 Bft) S-SO 157 11,2 C 22,8 C 0,0 km/h (0 Bft)
28.09.2014 09:50 13,8 C 92 % 1027,9 hPa 0,0 l/m 0,0 km/h (0 Bft) S-SO 157 12,5 C 22,8 C 0,0 km/h (0 Bft)
28.09.2014 10:00 14,1 C 89 % 1027,9 hPa 0,0 l/m 0,0 km/h (0 Bft) S-SO 157 12,3 C 22,8 C 0,0 km/h (0 Bft)
28.09.2014 10:10 16,7 C 87 % 1028,1 hPa 0,0 l/m 0,0 km/h (0 Bft) S-SO 157 14,5 C 22,8 C 0,0 km/h (0 Bft)
28.09.2014 10:20 18,7 C 80 % 1028,1 hPa 0,0 l/m 0,0 km/h (0 Bft) S-SO 157 15,2 C 22,8 C 0,0 km/h (0 Bft)
28.09.2014 10:30 19,6 C 77 % 1028,3 hPa 0,0 l/m 0,0 km/h (0 Bft) S-SO 157 15,5 C 22,8 C 0,0 km/h (0 Bft)
28.09.2014 10:40 18,9 C 76 % 1028,3 hPa 0,0 l/m 0,0 km/h (0 Bft) S-SO 157 14,6 C 22,8 C 0,0 km/h (0 Bft)
28.09.2014 10:50 19,7 C 71 % 1028,6 hPa 0,0 l/m 0,0 km/h (0 Bft) S-SO 157 14,3 C 22,8 C 0,0 km/h (0 Bft)
28.09.2014 11:00 19,1 C 68 % 1028,6 hPa 0,0 l/m 0,0 km/h (0 Bft) S-SO 157 13,1 C 22,8 C 0,0 km/h (0 Bft)
28.09.2014 11:10 20,4 C 59 % 1028,4 hPa 0,0 l/m 0,0 km/h (0 Bft) S-SO 157 12,1 C 22,8 C 0,0 km/h (0 Bft)
28.09.2014 11:20 22,1 C 62 % 1028,4 hPa 0,0 l/m 0,0 km/h (0 Bft) S-SO 157 14,5 C 22,8 C 0,0 km/h (0 Bft)
28.09.2014 11:28 22,0 C 49 % 1028,4 hPa 0,0 l/m 0,0 km/h (0 Bft) S-SO 157 10,8 C 22,8 C 0,0 km/h (0 Bft)
28.09.2014 11:30 23,3 C 51 % 1028,4 hPa 0,0 l/m 0,0 km/h (0 Bft) S-SO 157 12,6 C 22,8 C 0,0 km/h (0 Bft)
28.09.2014 11:40 23,3 C 51 % 1028,4 hPa 0,0 l/m 0,0 km/h (0 Bft) S-SO 157 12,6 C 22,8 C 0,0 km/h (0 Bft)
28.09.2014 11:50 23,3 C 49 % 1028,5 hPa 0,0 l/m 0,0 km/h (0 Bft) S-SO 157 12,0 C 22,8 C 0,0 km/h (0 Bft)
28.09.2014 12:00 23,6 C 46 % 1028,5 hPa 0,0 l/m 0,0 km/h (0 Bft) S-SO 157 11,3 C 22,8 C 0,0 km/h (0 Bft)
28.09.2014 12:10 24,7 C 46 % 1028,4 hPa 0,0 l/m 0,0 km/h (0 Bft) S-SO 157 12,3 C 22,8 C 0,0 km/h (0 Bft)
28.09.2014 12:20 24,4 C 41 % 1028,4 hPa 0,0 l/m 0,0 km/h (0 Bft) S-SO 157 10,3 C 22,8 C 0,0 km/h (0 Bft)
28.09.2014 12:30 24,2 C 45 % 1028,4 hPa 0,0 l/m 0,0 km/h (0 Bft) S-SO 157 11,5 C 22,8 C 0,0 km/h (0 Bft)
28.09.2014 12:40 25,4 C 45 % 1028,4 hPa 0,0 l/m 0,0 km/h (0 Bft) S-SO 157 12,6 C 22,8 C 0,0 km/h (0 Bft)
28.09.2014 12:50 25,1 C 44 % 1028,5 hPa 0,0 l/m 0,0 km/h (0 Bft) S-SO 157 12,0 C 22,8 C 0,0 km/h (0 Bft)
28.09.2014 13:00 25,4 C 42 % 1028,5 hPa 0,0 l/m 0,0 km/h (0 Bft) S-SO 157 11,5 C 22,8 C 0,0 km/h (0 Bft)
28.09.2014 13:10 24,1 C 45 % 1028,5 hPa 0,0 l/m 0,0 km/h (0 Bft) S-SO 157 11,4 C 22,8 C 0,0 km/h (0 Bft)
28.09.2014 13:20 24,2 C 46 % 1028,5 hPa 0,0 l/m 0,0 km/h (0 Bft) S-SO 157 11,8 C 22,8 C 0,0 km/h (0 Bft)
28.09.2014 13:30 24,7 C 47 % 1028,4 hPa 0,0 l/m 0,0 km/h (0 Bft) S-SO 157 12,6 C 22,8 C 0,0 km/h (0 Bft)
28.09.2014 13:40 23,8 C 50 % 1028,4 hPa 0,0 l/m 0,0 km/h (0 Bft) S-SO 157 12,7 C 22,8 C 0,0 km/h (0 Bft)
28.09.2014 13:50 24,2 C 49 % 1028,2 hPa 0,0 l/m 0,0 km/h (0 Bft) S-SO 157 12,8 C 22,8 C 0,0 km/h (0 Bft)
28.09.2014 14:00 22,9 C 54 % 1028,2 hPa 0,0 l/m 0,0 km/h (0 Bft) S-SO 157 13,1 C 22,8 C 0,0 km/h (0 Bft)
28.09.2014 14:10 23,7 C 53 % 1028,2 hPa 0,0 l/m 0,0 km/h (0 Bft) S-SO 157 13,5 C 22,8 C 0,0 km/h (0 Bft)
28.09.2014 14:20 23,0 C 53 % 1028,2 hPa 0,0 l/m 0,0 km/h (0 Bft) S-SO 157 12,9 C 22,8 C 0,0 km/h (0 Bft)
28.09.2014 14:28 22,8 C 54 % 1028,1 hPa 0,0 l/m 0,0 km/h (0 Bft) S-SO 157 13,0 C 22,8 C 0,0 km/h (0 Bft)
28.09.2014 14:30 22,9 C 55 % 1028,1 hPa 0,0 l/m 0,0 km/h (0 Bft) S-SO 157 13,4 C 22,8 C 0,0 km/h (0 Bft)
28.09.2014 14:40 22,9 C 55 % 1028,1 hPa 0,0 l/m 0,0 km/h (0 Bft) S-SO 157 13,4 C 22,8 C 0,0 km/h (0 Bft)
28.09.2014 14:50 22,9 C 56 % 1028,1 hPa 0,0 l/m 0,0 km/h (0 Bft) S-SO 157 13,6 C 22,8 C 0,0 km/h (0 Bft)
28.09.2014 15:00 23,1 C 55 % 1028,1 hPa 0,0 l/m 0,0 km/h (0 Bft) S-SO 157 13,6 C 22,8 C 0,0 km/h (0 Bft)
28.09.2014 15:10 22,4 C 56 % 1027,9 hPa 0,0 l/m 0,0 km/h (0 Bft) S-SO 157 13,2 C 22,8 C 0,0 km/h (0 Bft)
28.09.2014 15:20 22,7 C 57 % 1027,9 hPa 0,0 l/m 0,0 km/h (0 Bft) S-SO 157 13,7 C 22,8 C 0,0 km/h (0 Bft)
28.09.2014 15:30 22,9 C 56 % 1027,8 hPa 0,0 l/m 0,0 km/h (0 Bft) S-SO 157 13,6 C 22,8 C 0,0 km/h (0 Bft)
28.09.2014 15:40 22,5 C 56 % 1027,8 hPa 0,0 l/m 0,0 km/h (0 Bft) S-SO 157 13,3 C 22,8 C 0,0 km/h (0 Bft)
28.09.2014 15:50 22,9 C 55 % 1027,7 hPa 0,0 l/m 0,0 km/h (0 Bft) S-SO 157 13,4 C 22,8 C 0,0 km/h (0 Bft)
28.09.2014 16:00 22,3 C 56 % 1027,7 hPa 0,0 l/m 0,0 km/h (0 Bft) S-SO 157 13,1 C 22,8 C 0,0 km/h (0 Bft)
28.09.2014 16:10 22,3 C 57 % 1027,6 hPa 0,0 l/m 0,0 km/h (0 Bft) S-SO 157 13,4 C 22,8 C 0,0 km/h (0 Bft)
28.09.2014 16:20 22,0 C 57 % 1027,6 hPa 0,0 l/m 0,0 km/h (0 Bft) S-SO 157 13,1 C 22,8 C 0,0 km/h (0 Bft)
28.09.2014 16:30 21,3 C 59 % 1027,4 hPa 0,0 l/m 0,0 km/h (0 Bft) S-SO 157 13,0 C 22,8 C 0,0 km/h (0 Bft)
28.09.2014 16:40 20,9 C 61 % 1027,4 hPa 0,0 l/m 0,0 km/h (0 Bft) S-SO 157 13,1 C 22,8 C 0,0 km/h (0 Bft)
28.09.2014 16:50 20,6 C 64 % 1027,2 hPa 0,0 l/m 0,0 km/h (0 Bft) S-SO 157 13,5 C 22,8 C 0,0 km/h (0 Bft)
28.09.2014 17:00 20,3 C 64 % 1027,2 hPa 0,0 l/m 0,0 km/h (0 Bft) S-SO 157 13,3 C 22,8 C 0,0 km/h (0 Bft)
28.09.2014 17:10 19,6 C 67 % 1027,1 hPa 0,0 l/m 0,0 km/h (0 Bft) S-SO 157 13,3 C 22,8 C 0,0 km/h (0 Bft)
28.09.2014 17:20 19,3 C 68 % 1027,1 hPa 0,0 l/m 0,0 km/h (0 Bft) S-SO 157 13,2 C 22,8 C 0,0 km/h (0 Bft)
28.09.2014 17:28 18,9 C 70 % 1027,1 hPa 0,0 l/m 0,0 km/h (0 Bft) S-SO 157 13,3 C 22,8 C 0,0 km/h (0 Bft)
28.09.2014 17:30 18,4 C 71 % 1027,1 hPa 0,0 l/m 0,0 km/h (0 Bft) S-SO 157 13,0 C 22,8 C 0,0 km/h (0 Bft)
28.09.2014 17:40 18,4 C 71 % 1027,1 hPa 0,0 l/m 0,0 km/h (0 Bft) S-SO 157 13,0 C 22,8 C 0,0 km/h (0 Bft)
28.09.2014 17:50 18,1 C 71 % 1027,1 hPa 0,0 l/m 0,0 km/h (0 Bft) S-SO 157 12,8 C 22,8 C 0,0 km/h (0 Bft)
28.09.2014 18:00 17,8 C 73 % 1027,1 hPa 0,0 l/m 0,0 km/h (0 Bft) S-SO 157 12,9 C 22,8 C 0,0 km/h (0 Bft)
28.09.2014 18:10 17,4 C 74 % 1027,0 hPa 0,0 l/m 0,0 km/h (0 Bft) S-SO 157 12,7 C 22,8 C 0,0 km/h (0 Bft)
28.09.2014 18:20 17,3 C 74 % 1027,0 hPa 0,0 l/m 0,0 km/h (0 Bft) S-SO 157 12,6 C 22,8 C 0,0 km/h (0 Bft)
28.09.2014 18:30 16,8 C 75 % 1026,9 hPa 0,0 l/m 0,0 km/h (0 Bft) S-SO 157 12,3 C 22,8 C 0,0 km/h (0 Bft)
28.09.2014 18:40 16,5 C 77 % 1026,9 hPa 0,0 l/m 0,0 km/h (0 Bft) S-SO 157 12,5 C 22,8 C 0,0 km/h (0 Bft)
28.09.2014 18:50 16,3 C 79 % 1026,9 hPa 0,0 l/m 0,0 km/h (0 Bft) S-SO 157 12,6 C 22,8 C 0,0 km/h (0 Bft)
28.09.2014 19:00 15,7 C 80 % 1026,9 hPa 0,0 l/m 0,0 km/h (0 Bft) S-SO 157 12,3 C 22,8 C 0,0 km/h (0 Bft)
28.09.2014 19:10 15,4 C 82 % 1027,1 hPa 0,0 l/m 0,0 km/h (0 Bft) S-SO 157 12,3 C 22,8 C 0,0 km/h (0 Bft)
28.09.2014 19:20 14,5 C 83 % 1027,1 hPa 0,0 l/m 0,0 km/h (0 Bft) S-SO 157 11,6 C 22,8 C 0,0 km/h (0 Bft)
28.09.2014 19:30 14,1 C 84 % 1027,3 hPa 0,0 l/m 0,0 km/h (0 Bft) S-SO 157 11,4 C 22,8 C 0,0 km/h (0 Bft)
28.09.2014 19:40 13,8 C 86 % 1027,3 hPa 0,0 l/m 0,0 km/h (0 Bft) S-SO 157 11,5 C 22,8 C 0,0 km/h (0 Bft)
28.09.2014 19:50 13,8 C 87 % 1027,4 hPa 0,0 l/m 0,0 km/h (0 Bft) S-SO 157 11,7 C 22,8 C 0,0 km/h (0 Bft)
28.09.2014 20:00 13,3 C 87 % 1027,4 hPa 0,0 l/m 0,0 km/h (0 Bft) S-SO 157 11,2 C 22,8 C 0,0 km/h (0 Bft)
28.09.2014 20:10 13,0 C 87 % 1027,6 hPa 0,0 l/m 0,0 km/h (0 Bft) S-SO 157 10,9 C 22,8 C 0,0 km/h (0 Bft)
28.09.2014 20:20 12,3 C 87 % 1027,6 hPa 0,0 l/m 0,0 km/h (0 Bft) S-SO 157 10,2 C 22,8 C 0,0 km/h (0 Bft)
28.09.2014 20:28 12,9 C 89 % 1027,8 hPa 0,0 l/m 0,0 km/h (0 Bft) S-SO 157 11,1 C 22,8 C 0,0 km/h (0 Bft)
28.09.2014 20:30 12,5 C 89 % 1027,8 hPa 0,0 l/m 0,0 km/h (0 Bft) S-SO 157 10,7 C 22,8 C 0,0 km/h (0 Bft)
28.09.2014 20:40 12,5 C 89 % 1027,8 hPa 0,0 l/m 0,0 km/h (0 Bft) S-SO 157 10,7 C 22,8 C 0,0 km/h (0 Bft)
28.09.2014 20:50 12,0 C 89 % 1027,9 hPa 0,0 l/m 0,0 km/h (0 Bft) S-SO 157 10,2 C 22,8 C 0,0 km/h (0 Bft)
28.09.2014 21:00 12,2 C 89 % 1027,9 hPa 0,0 l/m 0,0 km/h (0 Bft) S-SO 157 10,4 C 22,8 C 0,0 km/h (0 Bft)
28.09.2014 21:10 11,9 C 90 % 1027,9 hPa 0,0 l/m 0,0 km/h (0 Bft) S-SO 157 10,3 C 22,8 C 0,0 km/h (0 Bft)
28.09.2014 21:20 11,5 C 90 % 1027,9 hPa 0,0 l/m 0,0 km/h (0 Bft) S-SO 157 9,9 C 22,8 C 0,0 km/h (0 Bft)
28.09.2014 21:30 11,2 C 90 % 1028,2 hPa 0,0 l/m 0,0 km/h (0 Bft) S-SO 157 9,6 C 22,8 C 0,0 km/h (0 Bft)
28.09.2014 21:40 11,3 C 90 % 1028,2 hPa 0,0 l/m 0,0 km/h (0 Bft) S-SO 157 9,7 C 22,8 C 0,0 km/h (0 Bft)
28.09.2014 21:50 11,6 C 91 % 1028,2 hPa 0,0 l/m 0,0 km/h (0 Bft) S-SO 157 10,2 C 22,8 C 0,0 km/h (0 Bft)
28.09.2014 22:00 11,8 C 92 % 1028,2 hPa 0,0 l/m 0,0 km/h (0 Bft) S-SO 157 10,5 C 22,8 C 0,0 km/h (0 Bft)
28.09.2014 22:10 11,7 C 92 % 1028,3 hPa 0,0 l/m 0,0 km/h (0 Bft) S-SO 157 10,4 C 22,8 C 0,0 km/h (0 Bft)
28.09.2014 22:20 11,6 C 92 % 1028,3 hPa 0,0 l/m 0,0 km/h (0 Bft) S-SO 157 10,3 C 22,8 C 0,0 km/h (0 Bft)
28.09.2014 22:30 11,4 C 92 % 1028,4 hPa 0,0 l/m 0,0 km/h (0 Bft) S-SO 157 10,1 C 22,8 C 0,0 km/h (0 Bft)
28.09.2014 22:40 10,5 C 92 % 1028,4 hPa 0,0 l/m 0,0 km/h (0 Bft) S-SO 157 9,3 C 22,8 C 0,0 km/h (0 Bft)
28.09.2014 22:50 10,2 C 91 % 1028,4 hPa 0,0 l/m 0,0 km/h (0 Bft) S-SO 157 8,8 C 22,8 C 0,0 km/h (0 Bft)
28.09.2014 23:00 10,6 C 92 % 1028,4 hPa 0,0 l/m 0,0 km/h (0 Bft) S-SO 157 9,4 C 22,8 C 0,0 km/h (0 Bft)
28.09.2014 23:10 10,1 C 92 % 1028,6 hPa 0,0 l/m 0,0 km/h (0 Bft) S-SO 157 8,9 C 22,8 C 0,0 km/h (0 Bft)
28.09.2014 23:20 10,8 C 92 % 1028,6 hPa 0,0 l/m 0,0 km/h (0 Bft) S-SO 157 9,6 C 22,8 C 0,0 km/h (0 Bft)
28.09.2014 23:28 10,8 C 92 % 1028,4 hPa 0,0 l/m 0,0 km/h (0 Bft) S-SO 157 9,6 C 22,8 C 0,0 km/h (0 Bft)
28.09.2014 23:30 10,2 C 92 % 1028,4 hPa 0,0 l/m 0,0 km/h (0 Bft) S-SO 157 9,0 C 22,8 C 0,0 km/h (0 Bft)
28.09.2014 23:40 10,2 C 92 % 1028,4 hPa 0,0 l/m 0,0 km/h (0 Bft) S-SO 157 9,0 C 22,8 C 0,0 km/h (0 Bft)
28.09.2014 23:50 10,1 C 92 % 1028,4 hPa 0,0 l/m 0,0 km/h (0 Bft) S-SO 157 8,9 C 22,8 C 0,0 km/h (0 Bft)
_ Min-Zeit 08:20 12:20 19:00 - 23:50 - - 08:20 23:50 23:50
Minimum _ 6,5 C 41 % 1026,9 hPa - 0,0 km/h (0 Bft) - - 5,5 C 22,8 C 0,0 km/h (0 Bft)
_ Max-Zeit 13:00 09:30 00:00 23:50 23:50 - - 10:30 23:50 23:50
Maximum _ 25,4 C 94 % 1028,9 hPa 0,0 l/m 0,0 km/h
S-SO (0 Bft)
- - 15,5 C 22,8 C 0,0 km/h
S-SO (0 Bft)
Durchschnitt _ 14,5 C 79 % 1027,9 hPa #0,0 l/m 0,0 km/h (0 Bft) - - - 10,4 C 22,8 C 0,0 km/h (0 Bft)